Tanana, AK

6:22 PM AKST on December 17, 2017 (GMT -0900)
Calhoun Memorial

Weather History for PATA - October, 2013

Change the Weather History Date:

Friday, October 11, 2013

  Actual Average Record
Temperature  
Mean Temperature 38 °F -  
Max Temperature 41 °F 33 °F 51 °F (1969)
Min Temperature 35 °F 19 °F -3 °F (1974)
Degree Days  
Heating Degree Days 27    
Moisture  
Dew Point 34 °F    
Average Humidity 87    
Maximum Humidity 93    
Minimum Humidity 82    
Precipitation  
Precipitation 0.00 in - - ()
Sea Level Pressure  
Sea Level Pressure 29.75 in    
Wind  
Wind Speed 9 mph (ESE)    
Max Wind Speed 18 mph    
Max Gust Speed -    
Visibility 10 miles    
Events Rain    
Averages and records for this station are not official NWS values.
T = Trace of Precipitation, MM = Missing Value Source: NWS Daily Summary

Daily Weather History Graph

Daily Weather History Graph

Search for Another Location

Airport or City:

Trip Planner

Search our weather history database for the weather conditions in past years. The results will help you decide how hot, cold, wet, or windy it might be!

Date:

Astronomy

Oct. 11, 2013 Rise Set
Actual Time 8:50 AM AKDT 6:57 PM AKDT
Civil Twilight 8:00 AM AKDT 7:47 PM AKDT
Nautical Twilight 7:03 AM AKDT 8:45 PM AKDT
Astronomical Twilight 6:03 AM AKDT 9:44 PM AKDT
Moon 4:55 PM AKDT (10/11) 11:46 PM AKDT (10/11)
Length of Visible Light 11h 47m
Length of Day
10h 07m
Waxing Crescent, 49% of the Moon is Illuminated
Oct 11
Waxing Crescent
Oct 11
First Quarter
Oct 18
Full
Oct 26
Last Quarter
Nov 3
New

Hourly Weather History & Observations

Time (AKDT) Temp. Windchill Dew Point Humidity Pressure Visibility Wind Dir Wind Speed Gust Speed Precip Events Conditions
12:52 AM 37.0 °F 30.4 °F 33.1 °F 86% 29.65 in 10.0 mi East 9.2 mph - N/A   Overcast
1:52 AM 37.0 °F 31.0 °F 32.0 °F 82% 29.66 in 10.0 mi East 8.1 mph - N/A   Overcast
2:52 AM 37.0 °F 32.4 °F 33.1 °F 86% 29.67 in 10.0 mi ENE 5.8 mph - N/A   Overcast
3:52 AM 37.0 °F 32.4 °F 32.0 °F 82% 29.68 in 10.0 mi ENE 5.8 mph - N/A   Overcast
4:52 AM 37.0 °F 31.0 °F 32.0 °F 82% 29.68 in 10.0 mi East 8.1 mph - N/A   Overcast
5:52 AM 37.0 °F 30.4 °F 33.1 °F 86% 29.71 in 10.0 mi ESE 9.2 mph - N/A Rain Light Rain
6:33 AM 35.6 °F 28.6 °F 33.8 °F 93% 29.71 in 10.0 mi SE 9.2 mph - N/A Rain Light Rain
6:52 AM 36.0 °F 27.1 °F 33.1 °F 89% 29.72 in 8.0 mi ESE 13.8 mph - N/A Rain Light Rain
7:07 AM 35.6 °F 28.6 °F 33.8 °F 93% 29.71 in 8.0 mi ESE 9.2 mph - N/A Rain Light Rain
7:52 AM 36.0 °F 27.1 °F 33.1 °F 89% 29.73 in 10.0 mi ESE 13.8 mph - N/A Rain Light Rain
8:33 AM 35.6 °F 28.6 °F 33.8 °F 93% 29.73 in 10.0 mi East 9.2 mph - N/A Rain Light Rain
8:52 AM 35.1 °F 27.4 °F 33.1 °F 92% 29.74 in 8.0 mi East 10.4 mph - N/A Rain Light Rain
9:52 AM 36.0 °F 29.0 °F 34.0 °F 93% 29.75 in 10.0 mi SE 9.2 mph - N/A Rain Light Rain
10:52 AM 37.0 °F 31.0 °F 34.0 °F 89% 29.77 in 5.0 mi East 8.1 mph - N/A Rain Light Rain
11:52 AM 37.0 °F 29.3 °F 34.0 °F 89% 29.78 in 8.0 mi ESE 11.5 mph - N/A Rain Light Rain
12:20 PM 37.4 °F 27.5 °F 35.6 °F 93% 29.77 in 10.0 mi ESE 18.4 mph - N/A   Overcast
12:52 PM 37.9 °F 28.2 °F 35.1 °F 89% 29.80 in 10.0 mi ESE 18.4 mph - N/A   Overcast
1:52 PM 39.0 °F 32.8 °F 36.0 °F 89% 29.81 in 10.0 mi ESE 9.2 mph - N/A   Overcast
2:52 PM 39.9 °F 33.9 °F 36.0 °F 86% 29.81 in 10.0 mi ESE 9.2 mph - N/A   Overcast
3:52 PM 41.0 °F 35.2 °F 36.0 °F 82% 29.81 in 10.0 mi ESE 9.2 mph - N/A   Mostly Cloudy
4:52 PM 39.9 °F 33.4 °F 36.0 °F 86% 29.80 in 10.0 mi ESE 10.4 mph - N/A   Mostly Cloudy
5:52 PM 41.0 °F 35.2 °F 36.0 °F 82% 29.80 in 10.0 mi ESE 9.2 mph - N/A   Mostly Cloudy
6:52 PM 39.9 °F 35.1 °F 37.0 °F 89% 29.81 in 10.0 mi ESE 6.9 mph - N/A   Overcast
7:52 PM 39.9 °F 34.5 °F 36.0 °F 86% 29.81 in 10.0 mi East 8.1 mph - N/A   Overcast
8:52 PM 39.9 °F 34.5 °F 35.1 °F 83% 29.80 in 10.0 mi East 8.1 mph - N/A   Overcast
9:52 PM 39.9 °F 34.5 °F 35.1 °F 83% 29.80 in 10.0 mi East 8.1 mph - N/A   Overcast
10:52 PM 37.9 °F 32.7 °F 35.1 °F 89% 29.79 in 10.0 mi NE 6.9 mph - N/A   Overcast
11:52 PM 37.9 °F 33.5 °F 34.0 °F 86% 29.78 in 10.0 mi ENE 5.8 mph - N/A   Overcast